TimeEST,TemperatureF,Dew PointF,Humidity,Sea Level PressureIn,VisibilityMPH,Wind Direction,Wind SpeedMPH,Gust SpeedMPH,PrecipitationIn,Events,Conditions,WindDirDegrees,DateUTC
12:53 AM,39.9,39.0,97,29.58,1.0,West,5.8,-,N/A,,Mist,280,2013-02-28 05:53:00
1:03 AM,39.2,39.2,100,29.58,3.0,WNW,8.1,-,N/A,,Overcast,290,2013-02-28 06:03:00
1:53 AM,39.0,37.9,96,29.59,9.0,WNW,4.6,-,N/A,,Overcast,290,2013-02-28 06:53:00
2:40 AM,37.4,35.6,93,29.58,10.0,NW,6.9,-,N/A,,Overcast,310,2013-02-28 07:40:00
2:53 AM,37.0,36.0,96,29.59,10.0,West,3.5,-,N/A,,Overcast,280,2013-02-28 07:53:00
3:23 AM,35.6,35.6,100,29.58,10.0,NW,3.5,-,N/A,,Scattered Clouds,310,2013-02-28 08:23:00
3:32 AM,35.6,35.6,100,29.59,10.0,West,3.5,-,N/A,,Scattered Clouds,280,2013-02-28 08:32:00
3:41 AM,35.6,35.6,100,29.60,10.0,Calm,Calm,-,N/A,,Mostly Cloudy,0,2013-02-28 08:41:00
3:53 AM,36.0,35.1,97,29.61,10.0,Calm,Calm,-,N/A,,Overcast,0,2013-02-28 08:53:00
4:53 AM,36.0,35.1,97,29.62,10.0,Calm,Calm,-,N/A,,Overcast,0,2013-02-28 09:53:00
4:56 AM,35.6,35.6,100,29.62,10.0,Calm,Calm,-,N/A,,Overcast,0,2013-02-28 09:56:00
5:53 AM,36.0,35.1,97,29.62,10.0,Calm,Calm,-,N/A,,Scattered Clouds,0,2013-02-28 10:53:00
6:19 AM,35.6,33.8,93,29.61,7.0,Calm,Calm,-,N/A,,Scattered Clouds,0,2013-02-28 11:19:00
6:50 AM,35.6,33.8,93,29.61,4.0,Calm,Calm,-,N/A,,Mostly Cloudy,0,2013-02-28 11:50:00
6:53 AM,36.0,34.0,93,29.61,4.0,WNW,3.5,-,N/A,,Mostly Cloudy,290,2013-02-28 11:53:00
7:53 AM,36.0,35.1,97,29.63,9.0,NW,5.8,-,N/A,,Overcast,310,2013-02-28 12:53:00
8:12 AM,35.6,35.6,100,29.64,8.0,NW,5.8,-,N/A,,Overcast,310,2013-02-28 13:12:00
9:40 AM,39.2,37.4,93,29.61,10.0,NNE,4.6,-,0.00,,Scattered Clouds,20,2013-02-28 14:40:00
9:53 AM,39.9,37.0,89,29.62,10.0,NNE,3.5,-,0.00,,Mostly Cloudy,30,2013-02-28 14:53:00
10:53 AM,39.0,36.0,89,29.62,10.0,Calm,Calm,-,N/A,,Overcast,0,2013-02-28 15:53:00
11:31 AM,39.2,35.6,87,29.61,10.0,Calm,Calm,-,0.00,,Overcast,0,2013-02-28 16:31:00
11:53 AM,39.9,37.0,89,29.60,10.0,Calm,Calm,-,0.00,,Overcast,0,2013-02-28 16:53:00
12:41 PM,42.8,37.4,81,29.57,10.0,Calm,Calm,-,N/A,,Overcast,0,2013-02-28 17:41:00
12:53 PM,41.0,37.9,89,29.57,10.0,Calm,Calm,-,N/A,,Overcast,0,2013-02-28 17:53:00
1:14 PM,42.8,39.2,87,29.56,10.0,Calm,Calm,-,N/A,,Overcast,0,2013-02-28 18:14:00
1:26 PM,42.8,37.4,81,29.55,10.0,NNE,3.5,-,N/A,,Mostly Cloudy,20,2013-02-28 18:26:00
1:53 PM,44.1,37.0,76,29.55,10.0,NW,3.5,-,N/A,,Mostly Cloudy,310,2013-02-28 18:53:00
2:53 PM,44.1,37.0,76,29.53,10.0,NW,6.9,-,N/A,,Scattered Clouds,320,2013-02-28 19:53:00
3:53 PM,44.1,37.9,79,29.54,10.0,Calm,Calm,-,N/A,,Overcast,0,2013-02-28 20:53:00
4:53 PM,43.0,37.0,80,29.53,10.0,Calm,Calm,-,N/A,,Overcast,0,2013-02-28 21:53:00
5:53 PM,41.0,36.0,82,29.53,10.0,Calm,Calm,-,N/A,,Overcast,0,2013-02-28 22:53:00
6:53 PM,39.9,36.0,86,29.53,10.0,Calm,Calm,-,N/A,,Overcast,0,2013-02-28 23:53:00
7:53 PM,39.9,36.0,86,29.53,10.0,Calm,Calm,-,N/A,,Partly Cloudy,0,2013-03-01 00:53:00
8:41 PM,39.2,37.4,93,29.53,8.0,Calm,Calm,-,N/A,,Mostly Cloudy,0,2013-03-01 01:41:00
8:53 PM,39.0,37.0,93,29.53,8.0,Calm,Calm,-,N/A,,Mostly Cloudy,0,2013-03-01 01:53:00
9:02 PM,39.2,35.6,87,29.53,8.0,Calm,Calm,-,N/A,,Scattered Clouds,0,2013-03-01 02:02:00
9:53 PM,37.9,36.0,93,29.52,7.0,Calm,Calm,-,N/A,,Overcast,0,2013-03-01 02:53:00
10:53 PM,37.9,36.0,93,29.52,9.0,WNW,3.5,-,N/A,,Scattered Clouds,300,2013-03-01 03:53:00
11:53 PM,37.9,35.1,89,29.52,10.0,NW,4.6,-,N/A,,Mostly Cloudy,320,2013-03-01 04:53:00